Location: Tr�vern
(48.0333°N, 4.6000°W)
Time: 02:56:00
(UTC+00:00)

Cosmos 1833 Rocket - Pass Details

Date: 14 July 2020
Orbit: 832 x 840 km, 71.0° (Epoch: 04 August)

Event Time Altitude Azimuth Distance (km) Brightness Sun altitude
Exits shadow 02:26:41 23° 198° (SSW) 1,719 3.7 -15.1°
Maximum altitude 02:30:20 79° 115° (ESE) 855 2.7 -14.8°
Drops below altitude 10° 02:35:58 10° 30° (NNE) 2,455 6.6 -14.4°
Sets 02:38:25 0° 29° (NNE) 3,394 7.8 -14.1°
